Location: Albany
(42.6526°N, 73.7562°W)
Time: 08:29:18
(UTC+00:00)

SL-16 R/B - Pass Details

Date: 19 November 2019
Orbit: 842 x 846 km, 71.0° (Epoch: 11 December)

Event Time Altitude Azimuth Distance (km) Brightness Sun altitude
Rises 22:36:27 0° 159° (SSE) 3,387 5.3 -12.4°
Reaches altitude 10° 22:39:36 10° 141° (SE) 2,458 4.4 -13.0°
Maximum altitude 22:43:21 18° 99° (E) 1,936 3.5 -13.6°
Enters shadow 22:43:54 18° 92° (E) 1,950 3.5 -13.7°
